カタログに戻る

STARLINK-32349

運用中通信VLEO
NORAD 61700·PAYLOAD·🇺🇸 United States

打ち上げ Oct 30, 2024 から Vandenberg Space Force Base

Loading…

次のパス (今後24時間)

TLE

最新Source: CelesTrak SupGP

元期: Sep 14, 2026, 21:02 UTC

1 61700C 24195P   26257.87687500 -.00003021  00000+0 -89282-4 0  2575
2 61700  53.1585 355.6483 0001175  88.3681 155.7158 15.34377633    10

AllMySatでSTARLINK-32349をリアルタイム追跡

Download on the App Store